,,PA_Meas_PMT16A,,PR_Meas_QMR101_102,,RH_Meas_QMH101,,SR_Meas_QMS101,,TA_Meas_QMH101,,GenWind,,GenWind,
time,status,PA,status,PR,status,RH,status,SR,status,TA,status,DirAvg,status,SpdAvg,
2013-02-20, 00:00:05,VALID,916.783,VALID,0,VALID,95.6815,VALID,0,VALID,19.0218,VALID,29,VALID,0,
2013-02-20, 00:01:05,VALID,916.786,VALID,0,VALID,95.6967,VALID,0.107441,VALID,18.9814,VALID,29,VALID,0,
2013-02-20, 00:02:05,VALID,916.766,VALID,0,VALID,95.7272,VALID,0.107441,VALID,19.0008,VALID,29,VALID,0,
2013-02-20, 00:03:05,VALID,916.778,VALID,0,VALID,95.6662,VALID,0.107441,VALID,18.9814,VALID,29,VALID,0,
2013-02-20, 00:04:05,VALID,916.756,VALID,0,VALID,95.6891,VALID,0,VALID,18.9619,VALID,29,VALID,0,
2013-02-20, 00:05:05,VALID,916.745,VALID,0,VALID,95.7272,VALID,0,VALID,18.9424,VALID,29,VALID,0,
2013-02-20, 00:06:05,VALID,916.743,VALID,0,VALID,95.773,VALID,0,VALID,18.9424,VALID,29,VALID,0,
2013-02-20, 00:07:05,VALID,916.75,VALID,0,VALID,95.7501,VALID,0,VALID,18.9229,VALID,29,VALID,0,
2013-02-20, 00:08:05,VALID,916.736,VALID,0,VALID,95.773,VALID,0,VALID,18.9048,VALID,29,VALID,0,
2013-02-20, 00:09:05,VALID,916.737,VALID,0,VALID,95.7654,VALID,0,VALID,18.9048,VALID,29,VALID,0,
2013-02-20, 00:10:05,VALID,916.772,VALID,0,VALID,95.7882,VALID,0,VALID,18.8853,VALID,29,VALID,0,
2013-02-20, 00:11:05,VALID,916.818,VALID,0,VALID,95.773,VALID,0,VALID,18.8658,VALID,29,VALID,0,
2013-02-20, 00:12:05,VALID,916.85,VALID,0,VALID,95.8035,VALID,0,VALID,18.8477,VALID,29,VALID,0,
2013-02-20, 00:13:05,VALID,916.801,VALID,0,VALID,95.8568,VALID,0,VALID,18.8073,VALID,29,VALID,0,
2013-02-20, 00:14:05,VALID,916.807,VALID,0,VALID,95.9941,VALID,0,VALID,18.8073,VALID,29,VALID,0,
2013-02-20, 00:15:05,VALID,916.826,VALID,0,VALID,96.0093,VALID,0,VALID,18.8073,VALID,29,VALID,0,
2013-02-20, 00:16:05,VALID,916.809,VALID,0,VALID,96.0398,VALID,0,VALID,18.7683,VALID,29,VALID,0,
2013-02-20, 00:17:05,VALID,916.837,VALID,0,VALID,96.0627,VALID,0,VALID,18.7488,VALID,29,VALID,0,
2013-02-20, 00:18:05,VALID,916.805,VALID,0,VALID,96.1236,VALID,0,VALID,18.7098,VALID,29,VALID,0,
2013-02-20, 00:19:05,VALID,916.826,VALID,0,VALID,96.1846,VALID,0,VALID,18.7098,VALID,29,VALID,0,
2013-02-20, 00:20:05,VALID,916.802,VALID,0,VALID,96.2456,VALID,0,VALID,18.6903,VALID,29,VALID,0,
2013-02-20, 00:21:05,VALID,916.768,VALID,0,VALID,96.2685,VALID,0,VALID,18.6903,VALID,29,VALID,0,
2013-02-20, 00:22:05,VALID,916.765,VALID,0,VALID,96.3295,VALID,0,VALID,18.7113,VALID,53,VALID,0,
2013-02-20, 00:23:05,VALID,916.77,VALID,0,VALID,96.3524,VALID,0.107441,VALID,18.6889,VALID,53,VALID,0,
2013-02-20, 00:24:05,VALID,916.738,VALID,0,VALID,96.3905,VALID,0.107441,VALID,18.6694,VALID,53,VALID,0,
2013-02-20, 00:25:05,VALID,916.703,VALID,0,VALID,96.4362,VALID,0.107441,VALID,18.6694,VALID,53,VALID,0,
2013-02-20, 00:26:05,VALID,916.667,VALID,0,VALID,96.4819,VALID,0,VALID,18.6694,VALID,53,VALID,0,
2013-02-20, 00:27:05,VALID,916.66,VALID,0,VALID,96.4972,VALID,0,VALID,18.6499,VALID,53,VALID,0,
2013-02-20, 00:28:05,VALID,916.667,VALID,0,VALID,96.5201,VALID,0.107441,VALID,18.6304,VALID,53,VALID,0,
2013-02-20, 00:29:05,VALID,916.674,VALID,0,VALID,96.5429,VALID,0,VALID,18.6304,VALID,53,VALID,0,
2013-02-20, 00:30:05,VALID,916.687,VALID,0,VALID,96.5887,VALID,0.107441,VALID,18.6499,VALID,54,VALID,0,
2013-02-20, 00:31:05,VALID,916.69,VALID,0,VALID,96.6344,VALID,0.107441,VALID,18.6499,VALID,54,VALID,0,
2013-02-20, 00:32:05,VALID,916.675,VALID,0,VALID,96.6649,VALID,0.107441,VALID,18.6499,VALID,54,VALID,0,
2013-02-20, 00:33:05,VALID,916.709,VALID,0,VALID,96.6954,VALID,0.107441,VALID,18.6499,VALID,54,VALID,0,
2013-02-20, 00:34:05,VALID,916.696,VALID,0,VALID,96.6802,VALID,0.107441,VALID,18.6304,VALID,56,VALID,0,
2013-02-20, 00:35:05,VALID,916.666,VALID,0,VALID,96.7259,VALID,0.107441,VALID,18.6694,VALID,106,VALID,0,
2013-02-20, 00:36:05,VALID,916.649,VALID,0,VALID,96.7564,VALID,0.107441,VALID,18.7279,VALID,106,VALID,0,
2013-02-20, 00:37:05,VALID,916.617,VALID,0,VALID,96.7945,VALID,0.107441,VALID,18.6889,VALID,106,VALID,0,
2013-02-20, 00:38:05,VALID,916.646,VALID,0,VALID,96.764,VALID,0,VALID,18.6513,VALID,106,VALID,0,
2013-02-20, 00:39:05,VALID,916.613,VALID,0,VALID,96.7183,VALID,0,VALID,18.6723,VALID,106,VALID,0,
2013-02-20, 00:40:05,VALID,916.599,VALID,0,VALID,96.7488,VALID,0,VALID,18.6528,VALID,106,VALID,0,
2013-02-20, 00:41:05,VALID,916.573,VALID,0,VALID,96.7793,VALID,0,VALID,18.6513,VALID,106,VALID,0,
2013-02-20, 00:42:05,VALID,916.543,VALID,0,VALID,96.8098,VALID,0,VALID,18.6513,VALID,106,VALID,0,
2013-02-20, 00:43:05,VALID,916.529,VALID,0,VALID,96.7793,VALID,0,VALID,18.572,VALID,106,VALID,0,
2013-02-20, 00:44:05,VALID,916.546,VALID,0,VALID,96.8021,VALID,0,VALID,18.5539,VALID,106,VALID,0,
2013-02-20, 00:45:05,VALID,916.569,VALID,0,VALID,96.7793,VALID,0.107441,VALID,18.5553,VALID,106,VALID,0,
2013-02-20, 00:46:05,VALID,916.569,VALID,0,VALID,96.7869,VALID,0,VALID,18.5358,VALID,106,VALID,0,
2013-02-20, 00:47:05,VALID,916.572,VALID,0,VALID,96.7945,VALID,0,VALID,18.4954,VALID,106,VALID,0,
2013-02-20, 00:48:05,VALID,916.625,VALID,0,VALID,96.825,VALID,0,VALID,18.4954,VALID,106,VALID,0,
2013-02-20, 00:49:05,VALID,916.623,VALID,0,VALID,96.8403,VALID,0,VALID,18.5163,VALID,106,VALID,0,
2013-02-20, 00:50:05,VALID,916.602,VALID,0,VALID,96.8403,VALID,0,VALID,18.4954,VALID,106,VALID,0,
2013-02-20, 00:51:05,VALID,916.582,VALID,0,VALID,96.8784,VALID,0,VALID,18.4954,VALID,106,VALID,0,
2013-02-20, 00:52:05,VALID,916.572,VALID,0,VALID,96.886,VALID,0,VALID,18.5539,VALID,106,VALID,0,
2013-02-20, 00:53:05,VALID,916.577,VALID,0,VALID,96.9089,VALID,0,VALID,18.5943,VALID,106,VALID,0,
2013-02-20, 00:54:05,VALID,916.582,VALID,0,VALID,96.9241,VALID,0,VALID,18.5943,VALID,106,VALID,0,
2013-02-20, 00:55:05,VALID,916.533,VALID,0,VALID,96.9089,VALID,0,VALID,18.6333,VALID,106,VALID,0,
2013-02-20, 00:56:05,VALID,916.504,VALID,0,VALID,96.9165,VALID,0,VALID,18.6918,VALID,106,VALID,0,
2013-02-20, 00:57:05,VALID,916.49,VALID,0,VALID,96.8098,VALID,0,VALID,18.6528,VALID,106,VALID,0,
2013-02-20, 00:58:05,VALID,916.491,VALID,0,VALID,96.7488,VALID,0,VALID,18.6124,VALID,106,VALID,0,
2013-02-20, 00:59:05,VALID,916.492,VALID,0,VALID,96.6268,VALID,0,VALID,18.6138,VALID,55,VALID,0,
2013-02-20, 01:00:05,VALID,916.437,VALID,0,VALID,96.5048,VALID,0,VALID,18.7113,VALID,55,VALID,0,
2013-02-20, 01:01:05,VALID,916.44,VALID,0,VALID,96.1465,VALID,0,VALID,18.7892,VALID,55,VALID,0,
2013-02-20, 01:02:05,VALID,916.396,VALID,0,VALID,95.8568,VALID,0,VALID,18.8087,VALID,55,VALID,0,
2013-02-20, 01:03:05,VALID,916.413,VALID,0,VALID,95.6357,VALID,0,VALID,18.8463,VALID,55,VALID,0,
2013-02-20, 01:04:05,VALID,916.388,VALID,0,VALID,95.3079,VALID,0,VALID,18.8463,VALID,55,VALID,0,
2013-02-20, 01:05:05,VALID,916.405,VALID,0,VALID,95.1555,VALID,0,VALID,18.8268,VALID,55,VALID,0,
2013-02-20, 01:06:04,VALID,916.365,VALID,0,VALID,95.064,VALID,0,VALID,18.8672,VALID,55,VALID,0,
2013-02-20, 01:07:04,VALID,916.392,VALID,0,VALID,94.9192,VALID,0,VALID,18.8672,VALID,55,VALID,0,
2013-02-20, 01:08:04,VALID,916.368,VALID,0,VALID,94.6905,VALID,0,VALID,18.8282,VALID,55,VALID,0,
2013-02-20, 01:09:04,VALID,916.348,VALID,0,VALID,94.6752,VALID,0,VALID,18.7892,VALID,55,VALID,0,
2013-02-20, 01:10:04,VALID,916.37,VALID,0,VALID,94.599,VALID,0,VALID,18.7503,VALID,55,VALID,0,
2013-02-20, 01:11:04,VALID,916.339,VALID,0,VALID,94.9344,VALID,0,VALID,18.7098,VALID,55,VALID,0,
2013-02-20, 01:12:04,VALID,916.333,VALID,0,VALID,95.0564,VALID,0,VALID,18.6918,VALID,55,VALID,0,
2013-02-20, 01:13:04,VALID,916.349,VALID,0,VALID,95.3232,VALID,0,VALID,18.6932,VALID,55,VALID,0,
2013-02-20, 01:14:04,VALID,916.375,VALID,0,VALID,95.5519,VALID,0,VALID,18.6528,VALID,55,VALID,0,
2013-02-20, 01:15:04,VALID,916.385,VALID,0,VALID,95.7044,VALID,0,VALID,18.6723,VALID,55,VALID,0,
2013-02-20, 01:16:04,VALID,916.342,VALID,0,VALID,95.773,VALID,0,VALID,18.6723,VALID,55,VALID,0,
2013-02-20, 01:17:04,VALID,916.333,VALID,0,VALID,95.8873,VALID,0,VALID,18.6513,VALID,55,VALID,0,
2013-02-20, 01:18:04,VALID,916.343,VALID,0,VALID,96.055,VALID,0,VALID,18.6918,VALID,55,VALID,0,
2013-02-20, 01:19:04,VALID,916.346,VALID,0,VALID,96.1923,VALID,0,VALID,18.7113,VALID,55,VALID,0,
2013-02-20, 01:20:04,VALID,916.364,VALID,0,VALID,96.2228,VALID,0,VALID,18.6918,VALID,55,VALID,0,
2013-02-20, 01:21:04,VALID,916.352,VALID,0,VALID,96.299,VALID,0,VALID,18.6903,VALID,55,VALID,0,
2013-02-20, 01:22:04,VALID,916.341,VALID,0,VALID,96.3447,VALID,0,VALID,18.7113,VALID,55,VALID,0,
2013-02-20, 01:23:04,VALID,916.326,VALID,0,VALID,96.3981,VALID,0,VALID,18.7098,VALID,55,VALID,0,
2013-02-20, 01:24:04,VALID,916.339,VALID,0,VALID,96.4438,VALID,0,VALID,18.7293,VALID,55,VALID,0,
2013-02-20, 01:25:04,VALID,916.288,VALID,0,VALID,96.4743,VALID,0,VALID,18.7293,VALID,55,VALID,0,
2013-02-20, 01:26:04,VALID,916.301,VALID,0,VALID,96.5124,VALID,0,VALID,18.7488,VALID,55,VALID,0,
2013-02-20, 01:27:04,VALID,916.284,VALID,0,VALID,96.5658,VALID,0,VALID,18.7488,VALID,55,VALID,0,
2013-02-20, 01:28:04,VALID,916.29,VALID,0,VALID,96.5811,VALID,0,VALID,18.7488,VALID,55,VALID,0,
2013-02-20, 01:29:04,VALID,916.321,VALID,0,VALID,96.6115,VALID,0,VALID,18.7488,VALID,55,VALID,0,
2013-02-20, 01:30:04,VALID,916.288,VALID,0,VALID,96.6192,VALID,0.107441,VALID,18.7488,VALID,55,VALID,0,
2013-02-20, 01:31:04,VALID,916.303,VALID,0,VALID,96.6344,VALID,0,VALID,18.7279,VALID,55,VALID,0,
2013-02-20, 01:32:04,VALID,916.281,VALID,0,VALID,96.6725,VALID,0.107441,VALID,18.7293,VALID,55,VALID,0,
2013-02-20, 01:33:04,VALID,916.272,VALID,0,VALID,96.6344,VALID,0.107441,VALID,18.7293,VALID,55,VALID,0,
2013-02-20, 01:34:04,VALID,916.256,VALID,0,VALID,96.6192,VALID,0,VALID,18.7293,VALID,55,VALID,0,
2013-02-20, 01:35:04,VALID,916.228,VALID,0,VALID,96.5734,VALID,0,VALID,18.6889,VALID,55,VALID,0,
2013-02-20, 01:36:04,VALID,916.252,VALID,0,VALID,96.5506,VALID,0,VALID,18.6694,VALID,55,VALID,0,
2013-02-20, 01:37:04,VALID,916.231,VALID,0,VALID,96.5658,VALID,0,VALID,18.6708,VALID,55,VALID,0,
2013-02-20, 01:38:04,VALID,916.203,VALID,0,VALID,96.5734,VALID,0.107441,VALID,18.7098,VALID,342,VALID,0,
2013-02-20, 01:39:04,VALID,916.206,VALID,0,VALID,96.5658,VALID,0.107441,VALID,18.7098,VALID,342,VALID,0,
2013-02-20, 01:40:04,VALID,916.219,VALID,0,VALID,96.5963,VALID,0,VALID,18.6903,VALID,342,VALID,0,
2013-02-20, 01:41:04,VALID,916.196,VALID,0,VALID,96.5963,VALID,0,VALID,18.7084,VALID,342,VALID,0,
2013-02-20, 01:42:04,VALID,916.186,VALID,0,VALID,96.6115,VALID,0.107441,VALID,18.7293,VALID,342,VALID,0,
2013-02-20, 01:43:04,VALID,916.166,VALID,0,VALID,96.6344,VALID,0,VALID,18.7488,VALID,342,VALID,0,
2013-02-20, 01:44:04,VALID,916.184,VALID,0,VALID,96.6268,VALID,0,VALID,18.7488,VALID,342,VALID,0,
2013-02-20, 01:45:04,VALID,916.154,VALID,0,VALID,96.6573,VALID,0,VALID,18.7488,VALID,342,VALID,0,
2013-02-20, 01:46:04,VALID,916.162,VALID,0,VALID,96.6725,VALID,0,VALID,18.7488,VALID,342,VALID,0,
2013-02-20, 01:47:04,VALID,916.154,VALID,0,VALID,96.6878,VALID,0.107441,VALID,18.7488,VALID,344,VALID,0,
2013-02-20, 01:48:04,VALID,916.116,VALID,0,VALID,96.703,VALID,0,VALID,18.7488,VALID,347,VALID,0,
2013-02-20, 01:49:04,VALID,916.149,VALID,0,VALID,96.7183,VALID,0,VALID,18.7279,VALID,2,VALID,0,
2013-02-20, 01:50:04,VALID,916.174,VALID,0,VALID,96.7259,VALID,0,VALID,18.7488,VALID,24,VALID,0,
2013-02-20, 01:51:04,VALID,916.166,VALID,0,VALID,96.7335,VALID,0,VALID,18.7488,VALID,24,VALID,0,
2013-02-20, 01:52:04,VALID,916.179,VALID,0,VALID,96.7716,VALID,0,VALID,18.7488,VALID,24,VALID,0,
2013-02-20, 01:53:04,VALID,916.187,VALID,0,VALID,96.764,VALID,0,VALID,18.7488,VALID,24,VALID,0,
2013-02-20, 01:54:04,VALID,916.184,VALID,0,VALID,96.7869,VALID,0,VALID,18.7697,VALID,24,VALID,0,
2013-02-20, 01:55:04,VALID,916.177,VALID,0,VALID,96.7945,VALID,0,VALID,18.7892,VALID,24,VALID,0,
2013-02-20, 01:56:04,VALID,916.17,VALID,0,VALID,96.8174,VALID,0,VALID,18.7892,VALID,24,VALID,0,
2013-02-20, 01:57:04,VALID,916.114,VALID,0,VALID,96.8174,VALID,0,VALID,18.7488,VALID,24,VALID,0,
2013-02-20, 01:58:04,VALID,916.106,VALID,0,VALID,96.8174,VALID,0,VALID,18.7697,VALID,24,VALID,0,
2013-02-20, 01:59:04,VALID,916.052,VALID,0,VALID,96.8174,VALID,0,VALID,18.7697,VALID,24,VALID,0,
2013-02-20, 02:00:04,VALID,916.06,VALID,0,VALID,96.825,VALID,0,VALID,18.7293,VALID,24,VALID,0,
2013-02-20, 02:01:04,VALID,916.076,VALID,0,VALID,96.8021,VALID,0,VALID,18.7293,VALID,24,VALID,0,
2013-02-20, 02:02:04,VALID,916.089,VALID,0,VALID,96.7945,VALID,0,VALID,18.6903,VALID,24,VALID,0,
2013-02-20, 02:03:04,VALID,916.081,VALID,0,VALID,96.7945,VALID,0,VALID,18.7308,VALID,24,VALID,0,
2013-02-20, 02:04:04,VALID,916.085,VALID,0,VALID,96.7869,VALID,0,VALID,18.7113,VALID,24,VALID,0,
2013-02-20, 02:05:04,VALID,916.085,VALID,0,VALID,96.8098,VALID,0,VALID,18.7098,VALID,24,VALID,0,
2013-02-20, 02:06:04,VALID,916.08,VALID,0,VALID,96.8098,VALID,0,VALID,18.7308,VALID,330,VALID,0,
2013-02-20, 02:07:04,VALID,916.067,VALID,0,VALID,96.8174,VALID,0,VALID,18.7503,VALID,359,VALID,0,
2013-02-20, 02:08:04,VALID,916.062,VALID,0,VALID,96.8021,VALID,0.107441,VALID,18.7474,VALID,359,VALID,0,
2013-02-20, 02:09:04,VALID,916.041,VALID,0,VALID,96.8098,VALID,0,VALID,18.7683,VALID,33,VALID,0,
2013-02-20, 02:10:04,VALID,916.001,VALID,0,VALID,96.825,VALID,0,VALID,18.7669,VALID,30,VALID,0,
2013-02-20, 02:11:04,VALID,915.974,VALID,0,VALID,96.8174,VALID,0.107441,VALID,18.7474,VALID,30,VALID,0,
2013-02-20, 02:12:04,VALID,915.978,VALID,0,VALID,96.8174,VALID,0,VALID,18.7474,VALID,30,VALID,0,
2013-02-20, 02:13:04,VALID,915.949,VALID,0,VALID,96.8021,VALID,0,VALID,18.7878,VALID,30,VALID,0,
2013-02-20, 02:14:04,VALID,915.94,VALID,0,VALID,96.8326,VALID,0,VALID,18.7864,VALID,30,VALID,0,
2013-02-20, 02:15:04,VALID,915.953,VALID,0,VALID,96.8403,VALID,0,VALID,18.8073,VALID,30,VALID,0,
2013-02-20, 02:16:04,VALID,915.926,VALID,0,VALID,96.8479,VALID,0.107441,VALID,18.7878,VALID,30,VALID,0,
2013-02-20, 02:17:04,VALID,915.914,VALID,0,VALID,96.8555,VALID,0,VALID,18.8073,VALID,30,VALID,0,
2013-02-20, 02:18:04,VALID,915.877,VALID,0,VALID,96.8479,VALID,0.107441,VALID,18.8073,VALID,30,VALID,0,
2013-02-20, 02:19:04,VALID,915.865,VALID,0,VALID,96.8479,VALID,0.107441,VALID,18.8073,VALID,30,VALID,0,
2013-02-20, 02:20:04,VALID,915.885,VALID,0,VALID,96.8555,VALID,0,VALID,18.8073,VALID,30,VALID,0,
2013-02-20, 02:21:04,VALID,915.867,VALID,0,VALID,96.8555,VALID,0,VALID,18.8073,VALID,30,VALID,0,
2013-02-20, 02:22:04,VALID,915.816,VALID,0,VALID,96.8784,VALID,0,VALID,18.7864,VALID,29,VALID,0,
2013-02-20, 02:23:04,VALID,915.813,VALID,0,VALID,96.8707,VALID,0.107441,VALID,18.8073,VALID,19,VALID,0,
2013-02-20, 02:24:04,VALID,915.812,VALID,0,VALID,96.8631,VALID,0.107441,VALID,18.7864,VALID,346,VALID,0,
2013-02-20, 02:25:04,VALID,915.811,VALID,0,VALID,96.8784,VALID,0,VALID,18.8059,VALID,346,VALID,0,
2013-02-20, 02:26:04,VALID,915.812,VALID,0,VALID,96.8784,VALID,0.107441,VALID,18.8073,VALID,346,VALID,0,
2013-02-20, 02:27:04,VALID,915.776,VALID,0,VALID,96.8784,VALID,0.107441,VALID,18.8059,VALID,346,VALID,0,
2013-02-20, 02:28:04,VALID,915.786,VALID,0,VALID,96.8707,VALID,0,VALID,18.8059,VALID,346,VALID,0,
2013-02-20, 02:29:04,VALID,915.74,VALID,0,VALID,96.8631,VALID,0,VALID,18.8059,VALID,340,VALID,0,
2013-02-20, 02:30:04,VALID,915.744,VALID,0,VALID,96.8631,VALID,0.107441,VALID,18.8449,VALID,337,VALID,0,
2013-02-20, 02:31:04,VALID,915.741,VALID,0,VALID,96.8784,VALID,0,VALID,18.8853,VALID,357,VALID,0,
2013-02-20, 02:32:04,VALID,915.745,VALID,0,VALID,96.8555,VALID,0.107441,VALID,18.9034,VALID,357,VALID,0,
2013-02-20, 02:33:04,VALID,915.721,VALID,0,VALID,96.8021,VALID,0,VALID,18.9034,VALID,13,VALID,0,
2013-02-20, 02:34:04,VALID,915.752,VALID,0,VALID,96.7564,VALID,0,VALID,18.9438,VALID,4,VALID,0,
2013-02-20, 02:35:04,VALID,915.755,VALID,0,VALID,96.6954,VALID,0,VALID,18.9438,VALID,8,VALID,0,
2013-02-20, 02:36:04,VALID,915.739,VALID,0,VALID,96.6649,VALID,0,VALID,18.9438,VALID,329,VALID,0,
2013-02-20, 02:37:04,VALID,915.767,VALID,0,VALID,96.6039,VALID,0.107441,VALID,18.9424,VALID,347,VALID,0,
2013-02-20, 02:38:04,VALID,915.744,VALID,0,VALID,96.5811,VALID,0,VALID,18.9438,VALID,347,VALID,0,
2013-02-20, 02:39:04,VALID,915.76,VALID,0,VALID,96.5506,VALID,0,VALID,18.9438,VALID,347,VALID,0,
2013-02-20, 02:40:04,VALID,915.735,VALID,0,VALID,96.5201,VALID,0,VALID,18.9243,VALID,10,VALID,0,
2013-02-20, 02:41:04,VALID,915.713,VALID,0,VALID,96.4896,VALID,0,VALID,18.9842,VALID,347,VALID,0,
2013-02-20, 02:42:04,VALID,915.721,VALID,0,VALID,96.4438,VALID,0,VALID,18.9828,VALID,345,VALID,0,
2013-02-20, 02:43:04,VALID,915.742,VALID,0,VALID,96.4133,VALID,0,VALID,19.0023,VALID,345,VALID,0,
2013-02-20, 02:44:04,VALID,915.724,VALID,0,VALID,96.421,VALID,0,VALID,19.0023,VALID,345,VALID,0,
2013-02-20, 02:45:04,VALID,915.725,VALID,0,VALID,96.4133,VALID,0,VALID,19.0232,VALID,345,VALID,0,
2013-02-20, 02:46:04,VALID,915.721,VALID,0,VALID,96.4133,VALID,0,VALID,19.0023,VALID,345,VALID,0,
2013-02-20, 02:47:04,VALID,915.732,VALID,0,VALID,96.4057,VALID,0,VALID,19.0023,VALID,35,VALID,0,
2013-02-20, 02:48:04,VALID,915.722,VALID,0.2,VALID,96.4286,VALID,0,VALID,19.0023,VALID,35,VALID,0,
2013-02-20, 02:49:04,VALID,915.712,VALID,0,VALID,96.421,VALID,0,VALID,19.0023,VALID,35,VALID,0,
2013-02-20, 02:50:04,VALID,915.685,VALID,0.2,VALID,96.4438,VALID,0,VALID,19.0023,VALID,35,VALID,0,
2013-02-20, 02:51:04,VALID,915.682,VALID,0.2,VALID,96.421,VALID,0,VALID,19.0023,VALID,35,VALID,0,
2013-02-20, 02:52:04,VALID,915.674,VALID,0.2,VALID,96.4515,VALID,0,VALID,19.0023,VALID,35,VALID,0,
2013-02-20, 02:53:04,VALID,915.68,VALID,0.2,VALID,96.4667,VALID,0,VALID,18.9828,VALID,35,VALID,0,
2013-02-20, 02:54:04,VALID,915.652,VALID,0,VALID,96.4896,VALID,0,VALID,18.9842,VALID,34,VALID,0,
2013-02-20, 02:55:04,VALID,915.624,VALID,0.2,VALID,96.4896,VALID,0,VALID,18.9828,VALID,35,VALID,0,
2013-02-20, 02:56:04,VALID,915.632,VALID,0.2,VALID,96.5277,VALID,0,VALID,18.9828,VALID,35,VALID,0,
2013-02-20, 02:57:04,VALID,915.606,VALID,0.2,VALID,96.5506,VALID,0,VALID,19.0037,VALID,35,VALID,0,
2013-02-20, 02:58:04,VALID,915.601,VALID,0,VALID,96.5658,VALID,0,VALID,18.9842,VALID,35,VALID,0,
2013-02-20, 02:59:04,VALID,915.58,VALID,0.2,VALID,96.5887,VALID,0,VALID,18.9633,VALID,35,VALID,0,
2013-02-20, 03:00:04,VALID,915.556,VALID,0,VALID,96.6344,VALID,0,VALID,18.9842,VALID,34,VALID,0,
2013-02-20, 03:01:04,VALID,915.57,VALID,0.2,VALID,96.6268,VALID,0,VALID,18.9842,VALID,324,VALID,0,
2013-02-20, 03:02:04,VALID,915.561,VALID,0,VALID,96.6497,VALID,0,VALID,18.9647,VALID,324,VALID,0,
2013-02-20, 03:03:04,VALID,915.522,VALID,0.2,VALID,96.6573,VALID,0,VALID,18.9647,VALID,324,VALID,0,
2013-02-20, 03:04:04,VALID,915.518,VALID,0,VALID,96.703,VALID,0,VALID,18.9633,VALID,324,VALID,0,
2013-02-20, 03:05:04,VALID,915.504,VALID,0.2,VALID,96.7107,VALID,0,VALID,18.9828,VALID,324,VALID,0,
2013-02-20, 03:06:04,VALID,915.535,VALID,0,VALID,96.7107,VALID,0,VALID,18.9842,VALID,324,VALID,0,
2013-02-20, 03:07:04,VALID,915.577,VALID,0,VALID,96.7564,VALID,0,VALID,18.9828,VALID,324,VALID,0,
2013-02-20, 03:08:04,VALID,915.568,VALID,0.2,VALID,96.7259,VALID,0,VALID,19.0023,VALID,324,VALID,0,
2013-02-20, 03:09:04,VALID,915.543,VALID,0.2,VALID,96.7488,VALID,0,VALID,18.9828,VALID,324,VALID,0,
2013-02-20, 03:10:04,VALID,915.497,VALID,0.2,VALID,96.7564,VALID,0,VALID,18.9828,VALID,358,VALID,0,
2013-02-20, 03:11:04,VALID,915.506,VALID,0,VALID,96.7793,VALID,0,VALID,18.9619,VALID,358,VALID,0,
2013-02-20, 03:12:04,VALID,915.477,VALID,0,VALID,96.7793,VALID,0,VALID,18.9828,VALID,337,VALID,0,
2013-02-20, 03:13:04,VALID,915.485,VALID,0,VALID,96.7869,VALID,0.107441,VALID,18.9619,VALID,354,VALID,0,
2013-02-20, 03:14:04,VALID,915.464,VALID,0,VALID,96.8098,VALID,0,VALID,18.9619,VALID,354,VALID,0,
2013-02-20, 03:15:04,VALID,915.508,VALID,0,VALID,96.8174,VALID,0,VALID,18.9828,VALID,354,VALID,0,
2013-02-20, 03:16:04,VALID,915.51,VALID,0,VALID,96.825,VALID,0,VALID,19.0023,VALID,354,VALID,0,
2013-02-20, 03:17:04,VALID,915.493,VALID,0,VALID,96.8326,VALID,0,VALID,18.9814,VALID,354,VALID,0,
2013-02-20, 03:18:04,VALID,915.509,VALID,0,VALID,96.8555,VALID,0,VALID,19.0023,VALID,15,VALID,0,
2013-02-20, 03:19:04,VALID,915.504,VALID,0,VALID,96.8479,VALID,0,VALID,19.0008,VALID,15,VALID,0,
2013-02-20, 03:20:04,VALID,915.485,VALID,0,VALID,96.886,VALID,0,VALID,19.0008,VALID,15,VALID,0,
2013-02-20, 03:21:04,VALID,915.461,VALID,0,VALID,96.886,VALID,0,VALID,19.0008,VALID,15,VALID,0,
2013-02-20, 03:22:04,VALID,915.485,VALID,0,VALID,96.886,VALID,0,VALID,18.9814,VALID,15,VALID,0,
2013-02-20, 03:23:04,VALID,915.48,VALID,0,VALID,96.8707,VALID,0,VALID,19.0218,VALID,14,VALID,0,
2013-02-20, 03:24:04,VALID,915.474,VALID,0,VALID,96.8936,VALID,0,VALID,19.0232,VALID,330,VALID,0,
2013-02-20, 03:25:04,VALID,915.467,VALID,0,VALID,96.8784,VALID,0,VALID,18.9828,VALID,356,VALID,0,
2013-02-20, 03:26:04,VALID,915.456,VALID,0,VALID,96.8936,VALID,0,VALID,19.0023,VALID,8,VALID,0,
2013-02-20, 03:27:04,VALID,915.463,VALID,0,VALID,96.9241,VALID,0,VALID,19.0232,VALID,21,VALID,0,
2013-02-20, 03:28:04,VALID,915.437,VALID,0,VALID,96.9241,VALID,0,VALID,19.0218,VALID,21,VALID,0,
2013-02-20, 03:29:04,VALID,915.453,VALID,0,VALID,96.9317,VALID,0,VALID,19.0413,VALID,21,VALID,0,
2013-02-20, 03:30:04,VALID,915.427,VALID,0,VALID,96.9622,VALID,0,VALID,19.0413,VALID,21,VALID,0,
2013-02-20, 03:31:04,VALID,915.461,VALID,0.2,VALID,96.9622,VALID,0,VALID,19.0413,VALID,2,VALID,0,
2013-02-20, 03:32:04,VALID,915.419,VALID,0,VALID,96.9622,VALID,0,VALID,19.0427,VALID,299,VALID,0,
2013-02-20, 03:33:04,VALID,915.433,VALID,0,VALID,96.9622,VALID,0,VALID,19.0427,VALID,327,VALID,0,
2013-02-20, 03:34:04,VALID,915.451,VALID,0,VALID,96.9546,VALID,0,VALID,19.0427,VALID,353,VALID,0,
2013-02-20, 03:35:04,VALID,915.446,VALID,0,VALID,96.9622,VALID,0,VALID,19.0218,VALID,349,VALID,0,
2013-02-20, 03:36:04,VALID,915.445,VALID,0,VALID,96.9698,VALID,0,VALID,19.0218,VALID,356,VALID,0,
2013-02-20, 03:37:04,VALID,915.445,VALID,0,VALID,96.9622,VALID,0,VALID,19.0218,VALID,357,VALID,0,
2013-02-20, 03:38:04,VALID,915.446,VALID,0,VALID,96.9622,VALID,0,VALID,19.0398,VALID,357,VALID,0,
2013-02-20, 03:39:04,VALID,915.414,VALID,0,VALID,96.9698,VALID,0,VALID,19.0413,VALID,358,VALID,0,
2013-02-20, 03:40:04,VALID,915.438,VALID,0,VALID,96.9775,VALID,0.107441,VALID,19.0608,VALID,9,VALID,0,
2013-02-20, 03:41:04,VALID,915.414,VALID,0,VALID,96.9927,VALID,0,VALID,19.0203,VALID,339,VALID,0,
2013-02-20, 03:42:04,VALID,915.391,VALID,0,VALID,96.9851,VALID,0,VALID,19.0413,VALID,22,VALID,0,
2013-02-20, 03:43:04,VALID,915.378,VALID,0,VALID,96.9927,VALID,0,VALID,19.0218,VALID,358,VALID,0,
2013-02-20, 03:44:04,VALID,915.395,VALID,0,VALID,97.008,VALID,0,VALID,19.0008,VALID,4,VALID,0,
2013-02-20, 03:45:04,VALID,915.381,VALID,0,VALID,97.0003,VALID,0,VALID,19.0203,VALID,9,VALID,0,
2013-02-20, 03:46:04,VALID,915.38,VALID,0,VALID,97.0308,VALID,0,VALID,19.0203,VALID,10,VALID,0,
2013-02-20, 03:47:04,VALID,915.377,VALID,0,VALID,97.0461,VALID,0,VALID,19.0203,VALID,14,VALID,0,
2013-02-20, 03:48:04,VALID,915.37,VALID,0,VALID,97.0308,VALID,0,VALID,19.0398,VALID,14,VALID,0,
2013-02-20, 03:49:04,VALID,915.377,VALID,0,VALID,97.0537,VALID,0,VALID,19.0398,VALID,14,VALID,0,
2013-02-20, 03:50:04,VALID,915.351,VALID,0,VALID,97.0613,VALID,0,VALID,19.0593,VALID,23,VALID,0,
2013-02-20, 03:51:04,VALID,915.356,VALID,0,VALID,97.069,VALID,0.107441,VALID,19.0593,VALID,22,VALID,0,
2013-02-20, 03:52:04,VALID,915.322,VALID,0,VALID,97.0613,VALID,0,VALID,19.0398,VALID,8,VALID,0,
2013-02-20, 03:53:04,VALID,915.305,VALID,0,VALID,97.0613,VALID,0,VALID,19.0023,VALID,4,VALID,0,
2013-02-20, 03:54:04,VALID,915.248,VALID,0,VALID,97.0766,VALID,0,VALID,19.0023,VALID,356,VALID,0,
2013-02-20, 03:55:04,VALID,915.237,VALID,0,VALID,97.069,VALID,0,VALID,19.0023,VALID,7,VALID,0,
2013-02-20, 03:56:04,VALID,915.213,VALID,0,VALID,97.0766,VALID,0,VALID,19.0037,VALID,345,VALID,0,
2013-02-20, 03:57:04,VALID,915.166,VALID,0,VALID,97.0613,VALID,0,VALID,19.0232,VALID,22,VALID,0,
2013-02-20, 03:58:04,VALID,915.176,VALID,0,VALID,97.0918,VALID,0,VALID,18.9828,VALID,8,VALID,0,